Погода в Пелотасе

Бразилия     31°45′18″S   52°20′12″W
темп.,
°C
ветер,
м/с
пор.,
м/с
влажн.,
%
обл.,
%
осадки,
мм/ч
давл.,
гПа
погр.,
м
26 февраля, пт
пт2600:00+19св24860 0.0 1016116
03:00+17ссз22900 0.0 101575
06:00+16сз11910 0.0 101546
09:00+23в12710 0.0 1017365
12:00+26всв45570 0.0 10171154
15:00+27в46560 0.0 10161261
18:00+24в57700 0.0 1017945
21:00+22в510750 0.0 1018691
27 февраля, сб
сб2700:00+22всв510761 0.0 1019715
03:00+21всв49792 0.1 1018494
06:00+20всв36843 0.0 1019308
09:00+24всв586813 0.1 10211184
12:00+26в575910 0.0 10211346
15:00+27в68585 0.0 10201409
18:00+24в69710 0.0 10201260
21:00+22в611740 0.0 10211026
28 февраля, вс
вс2800:00+22в611781 0.1 1021962
03:00+22всв5107522 0.1 1019982
06:00+22в597377 0.1 10201049
09:00+24всв696972 0.2 10201337
12:00+26в685956 0.1 10201520
15:00+26в796347 0.2 10181327
18:00+23в7118020 0.6 10171078
21:00+22в6118119 0.9 1017930
1 марта, пн
пн100:00+22в510812 0.1 1017708
03:00+22в5108633 0.3 1014613
06:00+21в498990 0.6 1015409
09:00+24в588395 1.1 1015874
12:00+24в5884100 4.4 1014880
15:00+24в588599 10.2 1012874
18:00+23в499078 3.6 1012663
21:00+22в499250 3.9 1013448
2 марта, вт
вт200:00+22в379328 0.3 1013288
03:00+22вюв369415 0.4 1012244
06:00+22вюв38946 0.2 1012324
09:00+24вюв47878 0.6 1013713
12:00+27вюв567349 0.7 1013943
15:00+26вюв677327 1.1 1012954
18:00+24вюв588515 0.4 1012780
21:00+22вюв498918 0.4 1014488